This is the latest recevied weather packets stored in our database for station/object AK4NG. If no packets are shown the sender has not sent any weather packets the latest 10 day(s).
| Time | Temp. | Humidity | Pressure | Rain* | Wind** | Luminosity | Snow |
|---|---|---|---|---|---|---|---|
| 1777718094 | 11.11° C | 99% | 1013.2 hPa | 0 mm | - | 0 W/m² | - |
| 1777717790 | 11.11° C | 99% | 1012.9 hPa | 0 mm | - | 0 W/m² | - |
| 1777717487 | 11.11° C | 99% | 1012.7 hPa | 0 mm | - | 0 W/m² | - |
| 1777717184 | 11.11° C | 99% | 1012.6 hPa | 0 mm | - | 0 W/m² | - |
| 1777716883 | 11.11° C | 99% | 1012.6 hPa | 0 mm | - | 0 W/m² | - |
| 1777716580 | 11.11° C | 99% | 1012.9 hPa | 0 mm | - | 0 W/m² | - |
| 1777716279 | 11.11° C | 99% | 1012.7 hPa | 0 mm | - | 0 W/m² | - |
| 1777715977 | 11.11° C | 99% | 1012.6 hPa | 0 mm | - | 0 W/m² | - |
| 1777715674 | 11.11° C | 99% | 1012.7 hPa | 1.78 mm | - | 0 W/m² | - |
| 1777715372 | 11.11° C | 99% | 1012.6 hPa | 1.78 mm | - | 0 W/m² | - |
| 1777715069 | 11.11° C | 99% | 1012.3 hPa | 1.27 mm | - | 0 W/m² | - |
| 1777714767 | 11.11° C | 99% | 1012.6 hPa | 6.1 mm | - | 0 W/m² | - |
| 1777714465 | 11.11° C | 99% | 1013 hPa | 4.83 mm | - | 0 W/m² | - |
| 1777714162 | 11.11° C | 99% | 1013.4 hPa | 1.27 mm | - | 0 W/m² | - |
| 1777713860 | 11.11° C | 99% | 1013.5 hPa | 1.27 mm | - | 0 W/m² | - |
| 1777713558 | 10.56° C | 99% | 1013.9 hPa | 0 mm | - | 0 W/m² | - |
| 1777713254 | 10.56° C | 99% | 1013.5 hPa | 1.78 mm | - | 0 W/m² | - |
| 1777712951 | 10.56° C | 99% | 1013.6 hPa | 3.05 mm | - | 0 W/m² | - |
| 1777712648 | 10.56° C | 99% | 1013.4 hPa | 1.27 mm | - | 0 W/m² | - |
| 1777712344 | 10.56° C | 99% | 1013.7 hPa | 3.05 mm | - | 0 W/m² | - |
| 1777712041 | 10.56° C | 99% | 1013.8 hPa | 3.56 mm | - | 0 W/m² | - |
| 1777711738 | 10.56° C | 99% | 1013.8 hPa | 3.05 mm | - | 0 W/m² | - |
| 1777711434 | 10.56° C | 99% | 1013.9 hPa | 4.32 mm | - | 0 W/m² | - |
| 1777711129 | 10.56° C | 99% | 1014.1 hPa | 3.05 mm | - | 0 W/m² | - |
| 1777710827 | 10.56° C | 99% | 1014.1 hPa | 1.78 mm | - | 0 W/m² | - |
* Rain latest hour (hover to see other rain measurements)
** Current wind speed in m/s (hover to see current wind gust speed)